Latest Weather Observations for Tarcoola

IDS60801

Issued at 2:31 pm CST Tuesday 7 July 2015 (issued every 30 minutes, with the page automatically refreshed every 10 minutes)

About weather observations | Map of weather stations | Latest weather observations for SA | Other Formats
Station Details ID: 016098 Name: TARCOOLA AERO Lat: -30.71 Lon: 134.58 Height: 123.0 m
Data from the previous 72 hours. | See also: Recent months at Tarcoola
Date/Time
CST
Temp
°C
App
Temp
°C
Dew
Point
Rel
Hum
%
Delta-T
°C
Wind Press
QNH
hPa
Press
MSL
hPa
Rain
since 9 am
mm
Dir
 
Spd
km/h
Gust
km/h
Spd
kts
Gust
kts
07/02:30pm 16.2 12.9 2.2 39 6.3 WNW 9 15 5 8 1022.8 1022.9 0.0
07/02:00pm 16.1 13.3 2.9 41 6.0 NE 7 15 4 8 1023.1 1023.2 0.0
07/01:30pm 15.8 12.6 3.3 43 5.7 SSE 9 13 5 7 1023.3 1023.4 0.0
07/01:00pm 15.9 12.7 3.0 42 5.9 SSE 9 15 5 8 1023.7 1023.8 0.0
07/12:30pm 15.5 12.7 3.3 44 5.6 ESE 7 15 4 8 1024.1 1024.2 0.0
07/12:00pm 15.8 12.8 2.2 40 6.1 NNE 7 15 4 8 1024.4 1024.5 0.0
07/11:30am 15.5 13.3 3.6 45 5.5 SSE 4 9 2 5 1024.7 1024.8 0.0
07/11:00am 14.1 10.5 3.0 47 5.0 SSE 11 15 6 8 1024.9 1025.0 0.0
07/10:30am 14.9 12.4 4.6 50 4.8 E 7 15 4 8 1025.0 1025.1 0.0
07/10:00am 13.7 11.8 6.6 62 3.4 ENE 6 9 3 5 1025.1 1025.2 0.0
07/09:30am 10.9 8.7 5.4 69 2.5 ENE 6 7 3 4 1025.1 1025.2 0.0
07/09:00am 8.8 7.6 4.6 75 1.9 CALM 0 0 0 0 1024.9 1025.0 0.0
07/08:30am 6.3 5.1 4.5 88 0.8 CALM 0 0 0 0 1024.7 1024.8 0.0
07/08:00am 2.6 0.7 0.8 88 0.7 CALM 0 0 0 0 1024.4 1024.5 0.0
07/07:30am 1.8 -0.6 -0.1 87 0.7 SSE 2 6 1 3 1024.1 1024.2 0.0
07/07:00am 3.0 0.1 1.5 90 0.6 WSW 6 7 3 4 1024.0 1024.1 0.0
07/06:30am 3.1 0.0 1.5 89 0.6 WSW 7 9 4 5 1023.7 1023.8 0.0
07/06:00am 3.6 0.6 1.8 88 0.7 WSW 7 9 4 5 1023.4 1023.5 0.0
07/05:30am 4.1 0.7 2.1 87 0.8 WSW 9 11 5 6 1023.2 1023.3 0.0
07/05:00am 5.2 2.4 2.2 81 1.2 SW 6 9 3 5 1023.1 1023.2 0.0
07/04:30am 5.9 4.5 3.4 84 1.0 CALM 0 6 0 3 1022.9 1023.0 0.0
07/04:00am 6.6 3.5 3.4 80 1.4 SSE 9 11 5 6 1023.1 1023.2 0.0
07/03:30am 6.0 3.3 3.7 85 1.0 SW 7 9 4 5 1023.4 1023.5 0.0
07/03:00am 5.6 2.8 3.3 85 1.0 WSW 7 9 4 5 1023.4 1023.5 0.0
07/02:30am 5.4 2.6 3.1 85 1.0 SW 7 11 4 6 1023.3 1023.4 0.0
07/02:00am 5.6 2.0 3.1 84 1.0 WSW 11 11 6 6 1023.4 1023.5 0.0
07/01:30am 6.3 3.2 3.6 83 1.1 SW 9 11 5 6 1023.3 1023.4 0.0
07/01:00am 6.4 3.3 3.4 81 1.3 SSW 9 11 5 6 1023.3 1023.4 0.0
07/12:30am 6.7 3.2 3.5 80 1.4 SW 11 13 6 7 1023.4 1023.5 0.0
07/12:00am 6.9 3.4 3.3 78 1.5 SW 11 13 6 7 1023.4 1023.5 0.0
 
Date/Time
CST
Temp
°C
App
Temp
°C
Dew
Point
Rel
Hum
%
Delta-T
°C
Wind Press
QNH
hPa
Press
MSL
hPa
Rain
since 9 am
mm
Dir
 
Spd
km/h
Gust
km/h
Spd
kts
Gust
kts
06/11:30pm 7.7 4.5 3.2 73 1.9 SSW 9 11 5 6 1023.4 1023.5 0.0
06/11:00pm 8.0 4.8 3.1 71 2.1 SSW 9 13 5 7 1023.4 1023.5 0.0
06/10:30pm 9.3 6.0 4.3 71 2.2 WSW 11 15 6 8 1023.4 1023.5 0.0
06/10:00pm 8.5 5.3 2.9 68 2.4 SW 9 11 5 6 1023.2 1023.3 0.0
06/09:30pm 9.3 6.0 2.6 63 2.8 SW 9 11 5 6 1023.0 1023.1 0.0
06/09:00pm 9.9 6.6 2.7 61 3.1 SSW 9 13 5 7 1022.9 1023.0 0.0
06/08:30pm 10.1 6.8 2.2 58 3.4 SW 9 9 5 5 1022.6 1022.7 0.0
06/08:00pm 10.6 7.7 2.7 58 3.4 WSW 7 9 4 5 1022.3 1022.4 0.0
06/07:30pm 10.9 7.9 2.2 55 3.7 WSW 7 9 4 5 1022.1 1022.2 0.0
06/07:00pm 12.0 9.3 2.5 52 4.1 SW 6 7 3 4 1021.8 1021.9 0.0
06/06:30pm 13.6 10.3 2.5 47 4.9 SSW 9 11 5 6 1021.4 1021.5 0.0
06/06:00pm 14.9 11.2 2.4 43 5.6 SW 11 15 6 8 1021.0 1021.0 0.0
06/05:30pm 17.0 13.0 2.6 38 6.6 SSW 13 17 7 9 1020.8 1020.8 0.0
06/05:00pm 17.9 13.1 2.6 36 7.0 SW 17 20 9 11 1020.5 1020.5 0.0
06/04:30pm 18.4 13.6 2.7 35 7.2 SW 17 20 9 11 1020.3 1020.4 0.0
06/04:00pm 18.7 14.0 3.3 36 7.2 SSW 17 22 9 12 1020.0 1020.1 0.0
06/03:30pm 18.9 14.0 3.9 37 7.1 SW 19 24 10 13 1020.0 1020.1 0.0
06/03:00pm 19.1 15.0 4.5 38 7.0 WSW 15 26 8 14 1019.9 1020.0 0.0
06/02:30pm 18.6 14.3 5.1 41 6.6 WSW 17 26 9 14 1019.9 1020.0 0.0
06/02:00pm 18.2 13.4 5.4 43 6.2 SW 20 32 11 17 1020.2 1020.3 0.0
06/01:30pm 18.6 14.5 6.1 44 6.2 WSW 17 26 9 14 1020.5 1020.5 0.0
06/01:00pm 17.5 13.8 6.1 47 5.6 SSW 15 26 8 14 1021.0 1021.0 0.0
06/12:30pm 17.6 13.2 7.4 51 5.1 SW 20 28 11 15 1021.4 1021.5 0.0
06/12:00pm 16.9 13.2 7.8 55 4.6 SW 17 26 9 14 1021.9 1022.0 0.0
06/11:30am 16.6 12.1 8.6 59 4.1 SSW 22 30 12 16 1022.0 1022.1 0.0
06/11:00am 15.9 11.0 8.6 62 3.7 SSW 24 30 13 16 1022.0 1022.1 0.0
06/10:30am 14.2 10.5 9.4 73 2.5 SW 19 24 10 13 1022.2 1022.3 0.0
06/10:00am 11.9 8.9 9.3 84 1.3 SW 15 20 8 11 1022.2 1022.3 0.0
06/09:30am 10.0 7.0 9.1 94 0.4 WSW 15 20 8 11 1022.0 1022.1 0.0
06/09:00am 9.7 6.2 8.8 94 0.4 SW 17 22 9 12 1021.8 1021.9 0.0
06/08:30am 9.3 6.5 8.4 94 0.4 WSW 13 17 7 9 1021.4 1021.5 0.0
06/08:00am 8.9 5.6 8.0 94 0.4 SW 15 19 8 10 1021.1 1021.1 0.0
06/07:30am 8.5 5.0 7.4 93 0.5 WSW 15 20 8 11 1020.8 1020.8 0.0
06/07:00am 6.3 3.3 4.0 85 1.0 WSW 9 11 5 6 1020.2 1020.3 0.0
06/06:30am 6.7 3.3 4.0 83 1.2 WSW 11 13 6 7 1019.8 1019.9 0.0
06/06:00am 7.2 3.8 3.8 79 1.5 SW 11 13 6 7 1019.7 1019.8 0.0
06/05:30am 7.3 6.0 4.1 80 1.4 CALM 0 0 0 0 1019.5 1019.6 0.0
06/05:00am 7.2 5.0 3.4 77 1.6 SW 4 7 2 4 1019.4 1019.5 0.0
06/04:30am 7.7 4.6 3.4 74 1.8 SW 9 11 5 6 1019.3 1019.4 0.0
06/04:00am 9.0 5.9 3.8 70 2.3 SSW 9 11 5 6 1019.2 1019.3 0.0
06/03:30am 9.3 6.3 3.9 69 2.4 SW 9 13 5 7 1019.1 1019.2 0.0
06/03:00am 9.2 5.6 2.8 64 2.7 WSW 11 13 6 7 1019.1 1019.2 0.0
06/02:30am 8.7 6.7 2.3 64 2.7 WSW 2 13 1 7 1019.2 1019.3 0.0
06/02:00am 9.8 7.1 2.6 61 3.1 WSW 6 11 3 6 1019.3 1019.4 0.0
06/01:30am 10.8 7.5 2.6 57 3.5 NE 9 11 5 6 1019.2 1019.3 0.0
06/01:00am 11.5 9.9 2.5 54 3.9 CALM 0 0 0 0 1019.4 1019.5 0.0
06/12:30am 13.2 8.1 3.0 50 4.5 W 19 28 10 15 1019.4 1019.5 0.0
06/12:00am 11.6 8.8 2.9 55 3.8 NE 7 9 4 5 1018.7 1018.8 0.0
 
Date/Time
CST
Temp
°C
App
Temp
°C
Dew
Point
Rel
Hum
%
Delta-T
°C
Wind Press
QNH
hPa
Press
MSL
hPa
Rain
since 9 am
mm
Dir
 
Spd
km/h
Gust
km/h
Spd
kts
Gust
kts
05/11:30pm 11.3 8.1 2.9 56 3.7 NNE 9 13 5 7 1018.4 1018.5 0.0
05/11:00pm 11.5 7.9 2.8 55 3.8 NE 11 11 6 6 1018.3 1018.4 0.0
05/10:30pm 12.6 8.6 3.0 52 4.3 NE 13 15 7 8 1018.4 1018.5 0.0
05/10:00pm 12.6 9.4 3.0 52 4.3 NE 9 13 5 7 1018.6 1018.7 0.0
05/09:30pm 13.2 9.2 3.0 50 4.5 NNE 13 15 7 8 1018.8 1018.9 0.0
05/09:00pm 13.1 9.4 2.6 49 4.6 NNE 11 15 6 8 1019.0 1019.1 0.0
05/08:30pm 14.0 10.0 2.9 47 5.0 N 13 17 7 9 1018.9 1019.0 0.0
05/08:00pm 12.0 7.9 2.5 52 4.1 NNE 13 15 7 8 1018.9 1019.0 0.0
05/07:30pm 12.0 8.3 2.2 51 4.2 NE 11 13 6 7 1019.0 1019.1 0.0
05/07:00pm 13.2 10.1 1.5 45 5.1 NNE 7 11 4 6 1018.9 1019.0 0.0
05/06:30pm 14.9 10.8 2.1 42 5.7 N 13 15 7 8 1018.6 1018.7 0.0
05/06:00pm 16.1 12.3 1.8 38 6.4 N 11 13 6 7 1018.4 1018.5 0.0
05/05:30pm 18.5 13.9 1.5 32 7.7 N 15 17 8 9 1018.4 1018.5 0.0
05/05:00pm 19.4 14.5 1.9 31 8.0 N 17 20 9 11 1018.4 1018.5 0.0
05/04:30pm 20.0 15.5 1.9 30 8.3 NNW 15 19 8 10 1018.5 1018.6 0.0
05/04:00pm 20.2 15.3 2.1 30 8.4 N 17 22 9 12 1018.5 1018.6 0.0
05/03:30pm 20.1 14.6 2.0 30 8.4 NNW 20 26 11 14 1018.6 1018.7 0.0
05/03:00pm 19.9 14.4 1.8 30 8.3 NNW 20 28 11 15 1018.7 1018.8 0.0
05/02:30pm 19.3 14.4 1.8 31 8.0 NNW 17 24 9 13 1019.0 1019.1 0.0
05/02:00pm 19.3 13.8 1.8 31 8.0 NNW 20 26 11 14 1019.2 1019.3 0.0
05/01:30pm 19.2 13.8 2.6 33 7.7 NNW 20 32 11 17 1019.8 1019.9 0.0
05/01:00pm 18.2 12.0 2.1 34 7.4 N 24 32 13 17 1020.3 1020.4 0.0
05/12:30pm 17.6 11.7 2.0 35 7.1 NNW 22 28 12 15 1021.0 1021.0 0.0
05/12:00pm 17.4 12.3 3.0 38 6.6 NNW 19 28 10 15 1021.5 1021.6 0.0
05/11:30am 16.7 11.5 3.7 42 6.0 NNW 20 26 11 14 1022.1 1022.2 0.0
05/11:00am 15.2 9.2 3.4 45 5.4 NNW 24 32 13 17 1022.3 1022.4 0.0
05/10:30am 14.1 7.0 3.3 48 4.9 NNW 30 35 16 19 1022.6 1022.7 0.0
05/10:00am 12.9 6.5 3.3 52 4.3 N 26 33 14 18 1022.7 1022.8 0.0
05/09:30am 11.6 6.0 3.4 57 3.6 N 22 30 12 16 1022.7 1022.8 0.0
05/09:00am 9.7 4.6 3.0 63 2.9 N 19 26 10 14 1022.8 1022.9 0.0
05/08:30am 8.2 3.8 2.9 69 2.2 N 15 20 8 11 1022.7 1022.8 0.0
05/08:00am 5.3 1.9 2.0 79 1.3 NE 9 11 5 6 1022.5 1022.6 0.0
05/07:30am 4.2 0.7 1.4 82 1.1 NE 9 9 5 5 1022.0 1022.1 0.0
05/07:00am 4.0 0.1 1.2 82 1.1 NE 11 11 6 6 1021.6 1021.7 0.0
05/06:30am 4.1 0.2 1.1 81 1.2 NNE 11 13 6 7 1021.8 1021.9 0.0
05/06:00am 4.2 0.3 1.2 81 1.2 NE 11 11 6 6 1021.7 1021.8 0.0
05/05:30am 4.1 0.6 1.1 81 1.2 NNE 9 11 5 6 1021.5 1021.6 0.0
05/05:00am 4.2 0.3 1.2 81 1.2 NE 11 13 6 7 1021.5 1021.6 0.0
05/04:30am 4.3 0.8 1.2 80 1.2 ENE 9 9 5 5 1021.7 1021.8 0.0
05/04:00am 4.3 0.8 1.2 80 1.2 NE 9 11 5 6 1021.9 1022.0 0.0
05/03:30am 4.7 1.6 1.2 78 1.4 NE 7 9 4 5 1022.0 1022.1 0.0
05/03:00am 4.8 1.3 1.5 79 1.3 NE 9 11 5 6 1022.0 1022.1 0.0
05/02:30am 4.8 1.2 0.9 76 1.5 NNE 9 11 5 6 1022.3 1022.4 0.0
05/02:00am 5.8 2.8 1.7 75 1.7 NE 7 9 4 5 1022.5 1022.6 0.0
05/01:30am 5.7 2.2 1.4 74 1.7 NNE 9 9 5 5 1022.5 1022.6 0.0
05/01:00am 5.6 2.1 1.3 74 1.7 NNE 9 9 5 5 1022.5 1022.6 0.0
05/12:30am 5.2 1.6 0.6 72 1.8 NNE 9 9 5 5 1022.7 1022.8 0.0
05/12:00am 5.4 2.2 0.8 72 1.8 NE 7 9 4 5 1022.8 1022.9 0.0
 
Date/Time
CST
Temp
°C
App
Temp
°C
Dew
Point
Rel
Hum
%
Delta-T
°C
Wind Press
QNH
hPa
Press
MSL
hPa
Rain
since 9 am
mm
Dir
 
Spd
km/h
Gust
km/h
Spd
kts
Gust
kts
04/11:30pm 5.3 2.2 0.3 70 1.9 ENE 6 7 3 4 1022.9 1023.0 0.0
04/11:00pm 5.6 2.0 0.6 70 2.0 ENE 9 9 5 5 1022.8 1022.9 0.0
04/10:30pm 6.3 4.4 0.6 67 2.2 CALM 0 0 0 0 1023.0 1023.1 0.0
04/10:00pm 6.2 4.3 0.5 67 2.2 CALM 0 0 0 0 1023.2 1023.3 0.0
04/09:30pm 6.7 4.8 0.6 65 2.4 CALM 0 0 0 0 1023.2 1023.3 0.0
04/09:00pm 7.8 6.0 1.2 63 2.7 CALM 0 0 0 0 1023.1 1023.2 0.0
04/08:30pm 7.4 4.7 0.4 61 2.8 ENE 4 6 2 3 1023.1 1023.2 0.0
04/08:00pm 8.8 7.0 1.0 58 3.2 CALM 0 0 0 0 1023.1 1023.2 0.0
04/07:30pm 9.4 7.7 1.6 58 3.2 CALM 0 0 0 0 1022.9 1023.0 0.0
04/07:00pm 10.3 8.5 1.2 53 3.8 CALM 0 0 0 0 1022.6 1022.7 0.0
04/06:30pm 12.0 10.3 1.6 49 4.4 CALM 0 0 0 0 1022.6 1022.7 0.0
04/06:00pm 13.8 10.8 1.8 44 5.2 N 7 9 4 5 1022.5 1022.6 0.0
04/05:30pm 15.9 13.0 1.6 38 6.3 N 6 9 3 5 1022.4 1022.5 0.0
04/05:00pm 16.9 12.7 1.8 36 6.8 NNW 13 17 7 9 1022.4 1022.5 0.0
04/04:30pm 17.3 13.9 1.7 35 7.0 NW 9 17 5 9 1022.2 1022.3 0.0
04/04:00pm 17.7 13.9 1.7 34 7.2 N 11 15 6 8 1022.2 1022.3 0.0
04/03:30pm 17.9 14.2 2.2 35 7.1 NE 11 22 6 12 1022.4 1022.5 0.0
04/03:00pm 17.9 13.8 2.2 35 7.1 NE 13 20 7 11 1022.6 1022.7 0.0

Other Formats:

Comma delimited format used in spreadsheet applications
http://www.bom.gov.au/fwo/IDS60801/IDS60801.94655.axf

JavaScript Object Notation format (JSON) in row-major order
http://www.bom.gov.au/fwo/IDS60801/IDS60801.94655.json